Regional Weather Roundup
Issued by NWS

Home | Current Version | Previous Version | Graphics & Text | Print | Product List | Glossary On
Versions: 1 2 3 4 5 6 7 8 9 10 11 12 13 14 15 16 17 18 19 20 21 22 23 24 25 26 27 28 29 30 31 32 33 34 35 36 37 38 39 40 41 42 43 44 45 46 47 48 49 50
032
ASUS45 KCYS 211710
RWRWY

WYOMING REGIONAL WEATHER ROUNDUP
NATIONAL WEATHER SERVICE CHEYENNE WY
1100 AM MDT THU SEP 21 2017

NOTE:  "FAIR" INDICATES FEW OR NO CLOUDS BELOW 12,000 FEET
WITH NO SIGNIFICANT WEATHER AND/OR OBSTRUCTIONS TO VISIBILITY.

WYZ001-211800-
YELLOWSTONE NATIONAL PARK

CITY           SKY/WX    TMP DP  RH WIND       PRES   REMARKS
LK YELLOWSTONE NOT AVBL
W YELLOWSTONE  NOT AVBL

$$
WYZ002>013-054>058-071-098>099-211800-
NORTHERN WYOMING

CITY           SKY/WX    TMP DP  RH WIND       PRES   REMARKS
JACKSON        CLOUDY    35  34  96 CALM      29.82R
CODY           LGT RAIN  42  40  92 N8        29.81S
GREYBULL       PTSUNNY   52  44  74 NW16      29.75F
WORLAND        PTSUNNY   55  42  61 N9        29.74F
SHERIDAN       CLOUDY    52  43  71 NW10      29.80R
BUFFALO        PTSUNNY   54  38  54 NW8       29.81R
GILLETTE       FAIR      58  39  49 N13       29.76R
HULETT         FAIR      59  37  44 N8        29.77S
NEWCASTLE      FAIR      68  32  26 CALM      29.73S

$$
WYZ014>020-022>026-101>103-211800-
CENTRAL WYOMING

CITY           SKY/WX    TMP DP  RH WIND       PRES   REMARKS
BIG PINEY      PTSUNNY   48  40  73 VRB5      29.79S
PINEDALE       CLOUDY    50  36  57 SE10      29.80S
DUBOIS         DRIZZLE   36  34  93 NW5       29.79S WCI  32
LANDER           N/A    N/A N/A N/A MISG      29.72S
RIVERTON       FAIR      55  38  52 E9        29.73S
CASPER         FAIR      57  35  43 N6        29.77
DOUGLAS        FAIR      72  33  24 NW12      29.74S

$$
WYZ021-027>030-104>119-211800-
SOUTHERN WYOMING

CITY           SKY/WX    TMP DP  RH WIND       PRES   REMARKS
EVANSTON       FAIR      50  39  66 NW6       29.78S
KEMMERER         N/A     52  36  54 W9        29.80S
FORT BRIDGER   FAIR      53  40  60 N6        29.81F
ROCK SPRINGS   FAIR      64  30  27 S26G38    29.75F
DIXON          FAIR      70  29  21 S25       29.85F
RAWLINS        FAIR      67  29  24 SW32G45   29.81F
SARATOGA       FAIR      68  27  21 SW21      29.85S
LARAMIE        FAIR      71  18  13 SW25G35   29.87S
CHEYENNE       FAIR      78  19  11 S20G25    29.82S
TORRINGTON     FAIR      69  39  33 E6        29.72F
PINE BLUFFS    FAIR      73  32  21 SW7       29.79F

$$




USA.gov is the U.S. government's official web portal to all federal, state and local government web resources and services.